Tracking 28341 objects as of 5-Dec-2023
HD Live streaming from Space Station
objects crossing your sky now

STARLINK-6145

Track STARLINK-6145 now!
10-day predictions
STARLINK-6145 is classified as:


NORAD ID: 56389
Int'l Code: 2023-061R
Perigee: 565.5 km
Apogee: 567.0 km
Inclination: 43.0 °
Period: 95.8 minutes
Semi major axis: 6937 km
RCS: Unknown
Launch date: May 4, 2023
Source: United States (US)
Launch site: AIR FORCE EASTERN TEST RANGE (AFETR)
Your satellite tracking list
Your tracking list is empty




NASA's NSSDC Master Catalog

Two Line Element Set (TLE):
1 56389U 23061R   23338.47593922  .00000757  00000-0  71092-4 0  9995
2 56389  43.0047   6.6214 0001110 289.9286  70.1436 15.02535509 32479
Source of the keplerian elements: AFSPC